Station Historical Data
Daily Summary for November 7, 2017 Units:  English    Metric   Both
« Previous Day
Next Day »
Daily Weekly Monthly Yearly Custom
  High: Low: Average:
Temperature: 56.0 °F 39.3 °F 46.1 °F
Dew Point: 44.0 °F 33.8 °F 38.3 °F
Humidity: 89 % 51 % 75 %
Wind Speed: 12.0 mph 0.0 mph 2.1 mph
Wind Gust: 18.0 mph - -
Wind:- - ESE
Pressure: 30.24 in 30.13 in -
Precipitation: 0.00 in    
Historical Graphs
 
 
Tabular Data for November 7, 2017
Time Temperature Dew Point Pressure Wind Wind Speed Wind Gust Humidity Rainfall Rate (Hourly) solar
00:03 41.4 °F 38.1 °F 30.23 in ESE 1.0 mph 8.0 mph 88 % 0.00 in 0.00 W/m2
00:08 41.4 °F 38.1 °F 30.23 in Calm   7.0 mph 88 % 0.00 in 0.00 W/m2
00:13 41.3 °F 38.0 °F 30.23 in Calm   6.0 mph 88 % 0.00 in 0.00 W/m2
00:18 41.3 °F 38.0 °F 30.23 in Calm   7.0 mph 88 % 0.00 in 0.00 W/m2
00:23 41.3 °F 38.0 °F 30.23 in ESE 1.0 mph 7.0 mph 88 % 0.00 in 0.00 W/m2
00:28 41.3 °F 38.0 °F 30.23 in ESE 2.0 mph 9.0 mph 88 % 0.00 in 0.00 W/m2
00:33 41.2 °F 37.9 °F 30.23 in ESE 6.0 mph 7.0 mph 88 % 0.00 in 0.00 W/m2
00:38 41.1 °F 38.1 °F 30.23 in ESE 4.0 mph 8.0 mph 89 % 0.00 in 0.00 W/m2
00:43 41.1 °F 38.1 °F 30.23 in ESE 5.0 mph 7.0 mph 89 % 0.00 in 0.00 W/m2
00:48 41.1 °F 38.1 °F 30.23 in ESE 2.0 mph 8.0 mph 89 % 0.00 in 0.00 W/m2
00:49 41.1 °F 38.1 °F 30.23 in ESE 6.0 mph 8.0 mph 89 % 0.00 in 0.00 W/m2
00:54 41.0 °F 38.0 °F 30.23 in East 4.0 mph 8.0 mph 89 % 0.00 in 0.00 W/m2
00:59 41.0 °F 38.0 °F 30.23 in East 2.0 mph 8.0 mph 89 % 0.00 in 0.00 W/m2
01:04 41.0 °F 38.0 °F 30.23 in East 2.0 mph 11.0 mph 89 % 0.00 in 0.00 W/m2
01:09 40.9 °F 37.9 °F 30.22 in East 6.0 mph 8.0 mph 89 % 0.00 in 0.00 W/m2
01:15 40.9 °F 37.9 °F 30.22 in East 6.0 mph 11.0 mph 89 % 0.00 in 0.00 W/m2
01:20 40.9 °F 37.9 °F 30.22 in East 2.0 mph 11.0 mph 89 % 0.00 in 0.00 W/m2
01:25 40.8 °F 37.5 °F 30.22 in Calm   9.0 mph 88 % 0.00 in 0.00 W/m2
01:30 40.8 °F 37.5 °F 30.22 in East 5.0 mph 9.0 mph 88 % 0.00 in 0.00 W/m2
01:35 40.7 °F 37.4 °F 30.22 in East 6.0 mph 11.0 mph 88 % 0.00 in 0.00 W/m2
01:40 40.8 °F 37.5 °F 30.22 in East 5.0 mph 11.0 mph 88 % 0.00 in 0.00 W/m2
01:45 40.7 °F 37.4 °F 30.22 in Calm   12.0 mph 88 % 0.00 in 0.00 W/m2
01:47 40.7 °F 37.4 °F 30.22 in East 8.0 mph 9.0 mph 88 % 0.00 in 0.00 W/m2
01:52 40.7 °F 37.4 °F 30.22 in Calm   12.0 mph 88 % 0.00 in 0.00 W/m2
01:57 40.7 °F 37.4 °F 30.22 in East 7.0 mph 9.0 mph 88 % 0.00 in 0.00 W/m2
02:02 40.6 °F 37.3 °F 30.22 in Calm   11.0 mph 88 % 0.00 in 0.00 W/m2
02:12 40.6 °F 37.3 °F 30.22 in Calm   12.0 mph 88 % 0.00 in 0.00 W/m2
02:17 40.6 °F 37.3 °F 30.22 in East 1.0 mph 11.0 mph 88 % 0.00 in 0.00 W/m2
02:22 40.6 °F 37.3 °F 30.22 in East 2.0 mph 8.0 mph 88 % 0.00 in 0.00 W/m2
02:27 40.6 °F 37.3 °F 30.22 in Calm   8.0 mph 88 % 0.00 in 0.00 W/m2
02:32 40.6 °F 37.3 °F 30.22 in ESE 4.0 mph 8.0 mph 88 % 0.00 in 0.00 W/m2
02:38 40.6 °F 37.3 °F 30.22 in Calm   9.0 mph 88 % 0.00 in 0.00 W/m2
02:43 40.6 °F 37.3 °F 30.22 in ESE 7.0 mph 9.0 mph 88 % 0.00 in 0.00 W/m2
02:48 40.6 °F 37.0 °F 30.22 in Calm   8.0 mph 87 % 0.00 in 0.00 W/m2
02:53 40.6 °F 37.0 °F 30.22 in ESE 6.0 mph 11.0 mph 87 % 0.00 in 0.00 W/m2
02:58 40.6 °F 37.0 °F 30.22 in Calm   12.0 mph 87 % 0.00 in 0.00 W/m2
03:03 40.5 °F 36.9 °F 30.22 in Calm   9.0 mph 87 % 0.00 in 0.00 W/m2
03:08 40.5 °F 36.9 °F 30.22 in ESE 6.0 mph 9.0 mph 87 % 0.00 in 0.00 W/m2
03:13 40.5 °F 36.9 °F 30.22 in Calm   11.0 mph 87 % 0.00 in 0.00 W/m2
03:18 40.5 °F 36.9 °F 30.22 in Calm   9.0 mph 87 % 0.00 in 0.00 W/m2
03:23 40.4 °F 36.8 °F 30.21 in Calm   9.0 mph 87 % 0.00 in 0.00 W/m2
03:28 40.3 °F 36.8 °F 30.22 in ESE 4.0 mph 12.0 mph 87 % 0.00 in 0.00 W/m2
03:33 40.3 °F 36.8 °F 30.21 in ESE 5.0 mph 12.0 mph 87 % 0.00 in 0.00 W/m2
03:38 40.3 °F 36.8 °F 30.21 in ESE 11.0 mph 12.0 mph 87 % 0.00 in 0.00 W/m2
03:48 40.2 °F 36.7 °F 30.21 in East 6.0 mph 11.0 mph 87 % 0.00 in 0.00 W/m2
03:53 40.2 °F 36.7 °F 30.21 in Calm   11.0 mph 87 % 0.00 in 0.00 W/m2
04:03 40.2 °F 36.3 °F 30.21 in ESE 4.0 mph 13.0 mph 86 % 0.00 in 0.00 W/m2
04:08 40.1 °F 36.3 °F 30.21 in Calm   11.0 mph 86 % 0.00 in 0.00 W/m2
04:13 40.1 °F 36.3 °F 30.21 in Calm   8.0 mph 86 % 0.00 in 0.00 W/m2
04:15 40.1 °F 36.3 °F 30.21 in East 2.0 mph 11.0 mph 86 % 0.00 in 0.00 W/m2
04:20 40.1 °F 36.3 °F 30.21 in East 2.0 mph 11.0 mph 86 % 0.00 in 0.00 W/m2
04:25 40.1 °F 36.3 °F 30.21 in Calm   11.0 mph 86 % 0.00 in 0.00 W/m2
04:30 40.0 °F 36.2 °F 30.21 in East 6.0 mph 11.0 mph 86 % 0.00 in 0.00 W/m2
04:35 40.0 °F 36.2 °F 30.21 in East 8.0 mph 9.0 mph 86 % 0.00 in 0.00 W/m2
04:40 39.9 °F 36.1 °F 30.21 in East 1.0 mph 2.0 mph 86 % 0.00 in 0.00 W/m2
04:45 39.9 °F 36.1 °F 30.21 in East 6.0 mph 12.0 mph 86 % 0.00 in 0.00 W/m2
04:50 39.8 °F 36.0 °F 30.21 in Calm   9.0 mph 86 % 0.00 in 0.00 W/m2
04:51 39.8 °F 36.0 °F 30.21 in East 4.0 mph 4.0 mph 86 % 0.00 in 0.00 W/m2
04:56 39.8 °F 36.0 °F 30.21 in East 6.0 mph 8.0 mph 86 % 0.00 in 0.00 W/m2
05:01 39.7 °F 35.6 °F 30.21 in East 4.0 mph 6.0 mph 85 % 0.00 in 0.00 W/m2
05:06 39.7 °F 35.6 °F 30.21 in East 6.0 mph 6.0 mph 85 % 0.00 in 0.00 W/m2
05:11 39.7 °F 35.6 °F 30.22 in East 4.0 mph 8.0 mph 85 % 0.00 in 0.00 W/m2
05:16 39.6 °F 35.2 °F 30.21 in East 7.0 mph 7.0 mph 84 % 0.00 in 0.00 W/m2
05:21 39.5 °F 35.1 °F 30.22 in East 2.0 mph 7.0 mph 84 % 0.00 in 0.00 W/m2
05:26 39.5 °F 35.1 °F 30.22 in East 5.0 mph 7.0 mph 84 % 0.00 in 0.00 W/m2
05:31 39.5 °F 35.1 °F 30.22 in East 5.0 mph 7.0 mph 84 % 0.00 in 0.00 W/m2
05:36 39.5 °F 35.1 °F 30.22 in East 6.0 mph 8.0 mph 84 % 0.00 in 0.00 W/m2
05:41 39.5 °F 35.1 °F 30.22 in East 6.0 mph 8.0 mph 84 % 0.00 in 0.00 W/m2
05:46 39.5 °F 35.1 °F 30.22 in Calm   8.0 mph 84 % 0.00 in 0.00 W/m2
05:51 39.5 °F 35.1 °F 30.22 in East 7.0 mph 9.0 mph 84 % 0.00 in 0.00 W/m2
05:56 39.4 °F 35.0 °F 30.22 in East 2.0 mph 8.0 mph 84 % 0.00 in 0.00 W/m2
06:01 39.3 °F 34.6 °F 30.22 in East 5.0 mph 9.0 mph 83 % 0.00 in 0.00 W/m2
06:06 39.3 °F 34.6 °F 30.22 in East 4.0 mph 7.0 mph 83 % 0.00 in 0.00 W/m2
06:11 39.4 °F 34.7 °F 30.22 in ESE 9.0 mph 12.0 mph 83 % 0.00 in 0.00 W/m2
06:16 39.5 °F 34.8 °F 30.22 in Calm   12.0 mph 83 % 0.00 in 0.00 W/m2
06:21 39.4 °F 34.7 °F 30.22 in East 6.0 mph 8.0 mph 83 % 0.00 in 0.00 W/m2
06:26 39.5 °F 34.8 °F 30.22 in East 1.0 mph 8.0 mph 83 % 0.00 in 0.00 W/m2
06:32 39.4 °F 34.7 °F 30.22 in ESE 6.0 mph 11.0 mph 83 % 0.00 in 0.00 W/m2
06:37 39.4 °F 34.4 °F 30.23 in East 5.0 mph 9.0 mph 82 % 0.00 in 5.00 W/m2
06:42 39.4 °F 34.4 °F 30.23 in East 7.0 mph 9.0 mph 82 % 0.00 in 7.00 W/m2
06:47 39.4 °F 34.1 °F 30.22 in ESE 1.0 mph 9.0 mph 81 % 0.00 in 11.00 W/m2
06:52 39.4 °F 34.1 °F 30.23 in ESE 6.0 mph 9.0 mph 81 % 0.00 in 12.00 W/m2
06:57 39.4 °F 34.1 °F 30.23 in East 5.0 mph 8.0 mph 81 % 0.00 in 16.00 W/m2
07:02 39.5 °F 33.8 °F 30.23 in Calm   11.0 mph 80 % 0.00 in 21.00 W/m2
07:07 39.5 °F 34.2 °F 30.23 in East 1.0 mph 11.0 mph 81 % 0.00 in 28.00 W/m2
07:12 39.5 °F 34.2 °F 30.23 in Calm   12.0 mph 81 % 0.00 in 42.00 W/m2
07:17 39.5 °F 34.2 °F 30.23 in ESE 6.0 mph 8.0 mph 81 % 0.00 in 56.00 W/m2
07:22 39.5 °F 34.2 °F 30.23 in ESE 5.0 mph 8.0 mph 81 % 0.00 in 72.00 W/m2
07:27 39.6 °F 34.3 °F 30.23 in East 4.0 mph 12.0 mph 81 % 0.00 in 86.00 W/m2
07:32 39.6 °F 34.3 °F 30.23 in ESE 2.0 mph 8.0 mph 81 % 0.00 in 104.00 W/m2
07:37 39.6 °F 34.0 °F 30.23 in ESE 4.0 mph 8.0 mph 80 % 0.00 in 121.00 W/m2
07:42 39.7 °F 34.0 °F 30.24 in East 2.0 mph 8.0 mph 80 % 0.00 in 120.00 W/m2
07:47 39.8 °F 34.1 °F 30.24 in Calm   11.0 mph 80 % 0.00 in 155.00 W/m2
07:54 40.0 °F 34.0 °F 30.24 in ESE 1.0 mph 9.0 mph 79 % 0.00 in 181.00 W/m2
07:59 40.1 °F 34.1 °F 30.24 in Calm   14.0 mph 79 % 0.00 in 200.00 W/m2
08:04 40.3 °F 34.3 °F 30.24 in East 6.0 mph 11.0 mph 79 % 0.00 in 220.00 W/m2
08:09 40.4 °F 34.4 °F 30.24 in East 7.0 mph 11.0 mph 79 % 0.00 in 241.00 W/m2
08:14 40.5 °F 34.2 °F 30.24 in Calm   9.0 mph 78 % 0.00 in 260.00 W/m2
08:19 40.7 °F 34.1 °F 30.24 in ESE 6.0 mph 9.0 mph 77 % 0.00 in 278.00 W/m2
08:24 40.9 °F 33.9 °F 30.24 in ESE 4.0 mph 12.0 mph 76 % 0.00 in 297.00 W/m2
08:29 41.1 °F 34.1 °F 30.24 in Calm   14.0 mph 76 % 0.00 in 309.00 W/m2
08:34 41.5 °F 35.2 °F 30.24 in Calm   9.0 mph 78 % 0.00 in 325.00 W/m2
08:39 41.7 °F 35.7 °F 30.24 in Calm   5.0 mph 79 % 0.00 in 339.00 W/m2
08:40 41.8 °F 35.8 °F 30.24 in Calm   7.0 mph 79 % 0.00 in 341.00 W/m2
08:45 42.0 °F 35.7 °F 30.24 in ESE 7.0 mph 9.0 mph 78 % 0.00 in 357.00 W/m2
08:50 42.2 °F 35.8 °F 30.24 in Calm   9.0 mph 78 % 0.00 in 369.00 W/m2
08:55 42.4 °F 36.4 °F 30.24 in ESE 8.0 mph 11.0 mph 79 % 0.00 in 381.00 W/m2
09:00 42.7 °F 36.7 °F 30.24 in Calm   7.0 mph 79 % 0.00 in 394.00 W/m2
09:05 43.0 °F 36.6 °F 30.23 in Calm   8.0 mph 78 % 0.00 in 404.00 W/m2
09:10 43.3 °F 36.9 °F 30.23 in ESE 4.0 mph 6.0 mph 78 % 0.00 in 420.00 W/m2
09:15 43.7 °F 37.3 °F 30.24 in Calm   8.0 mph 78 % 0.00 in 429.00 W/m2
09:20 44.1 °F 37.7 °F 30.24 in ESE 4.0 mph 7.0 mph 78 % 0.00 in 441.00 W/m2
09:25 44.5 °F 37.8 °F 30.24 in ESE 2.0 mph 5.0 mph 77 % 0.00 in 454.00 W/m2
09:30 44.8 °F 38.0 °F 30.24 in Calm   1.0 mph 77 % 0.00 in 464.00 W/m2
09:35 45.1 °F 38.7 °F 30.24 in Calm   4.0 mph 78 % 0.00 in 476.00 W/m2
09:40 45.4 °F 37.6 °F 30.24 in Calm   2.0 mph 74 % 0.00 in 483.00 W/m2
09:45 45.9 °F 37.8 °F 30.24 in Calm     73 % 0.00 in 489.00 W/m2
09:50 46.2 °F 38.0 °F 30.24 in Calm     73 % 0.00 in 503.00 W/m2
09:55 46.5 °F 37.6 °F 30.24 in Calm   7.0 mph 71 % 0.00 in 512.00 W/m2
10:00 46.9 °F 38.7 °F 30.23 in SE 6.0 mph 8.0 mph 73 % 0.00 in 522.00 W/m2
10:05 47.3 °F 38.0 °F 30.23 in SE 6.0 mph 9.0 mph 70 % 0.00 in 527.00 W/m2
10:10 47.7 °F 38.8 °F 30.23 in Calm   7.0 mph 71 % 0.00 in 536.00 W/m2
10:15 48.3 °F 39.7 °F 30.24 in Calm   6.0 mph 72 % 0.00 in 543.00 W/m2
10:20 49.0 °F 39.3 °F 30.24 in Calm   5.0 mph 69 % 0.00 in 550.00 W/m2
10:25 49.4 °F 40.0 °F 30.23 in Calm     70 % 0.00 in 557.00 W/m2
10:30 49.8 °F 38.9 °F 30.23 in Calm   5.0 mph 66 % 0.00 in 564.00 W/m2
10:35 50.4 °F 37.0 °F 30.23 in Calm   5.0 mph 60 % 0.00 in 570.00 W/m2
10:40 50.7 °F 38.6 °F 30.23 in SE 2.0 mph 5.0 mph 63 % 0.00 in 575.00 W/m2
10:45 51.0 °F 38.9 °F 30.22 in Calm   5.0 mph 63 % 0.00 in 582.00 W/m2
10:50 51.3 °F 39.2 °F 30.22 in Calm   5.0 mph 63 % 0.00 in 587.00 W/m2
10:55 51.5 °F 36.3 °F 30.22 in SE 2.0 mph 6.0 mph 56 % 0.00 in 592.00 W/m2
11:00 51.7 °F 37.4 °F 30.22 in SSE 2.0 mph 6.0 mph 58 % 0.00 in 594.00 W/m2
11:05 52.0 °F 34.9 °F 30.22 in Calm   6.0 mph 52 % 0.00 in 598.00 W/m2
11:20 52.6 °F 38.3 °F 30.22 in SSE 2.0 mph 5.0 mph 58 % 0.00 in 591.00 W/m2
11:25 52.9 °F 38.5 °F 30.21 in SW 3.0 mph 8.0 mph 58 % 0.00 in 603.00 W/m2
11:30 53.0 °F 39.1 °F 30.21 in South 6.0 mph 11.0 mph 59 % 0.00 in 610.00 W/m2
11:35 53.1 °F 37.4 °F 30.21 in South 2.0 mph 8.0 mph 55 % 0.00 in 610.00 W/m2
11:40 53.2 °F 37.0 °F 30.21 in South 4.0 mph 8.0 mph 54 % 0.00 in 606.00 W/m2
11:45 53.4 °F 36.7 °F 30.21 in Calm   4.0 mph 53 % 0.00 in 608.00 W/m2
11:50 53.6 °F 36.4 °F 30.20 in Calm   4.0 mph 52 % 0.00 in 608.00 W/m2
11:55 53.7 °F 38.4 °F 30.20 in Calm     56 % 0.00 in 605.00 W/m2
12:00 54.0 °F 37.3 °F 30.20 in South 3.0 mph 3.0 mph 53 % 0.00 in 608.00 W/m2
12:05 54.2 °F 37.9 °F 30.20 in Calm   5.0 mph 54 % 0.00 in 605.00 W/m2
12:10 54.2 °F 36.5 °F 30.19 in Calm     51 % 0.00 in 601.00 W/m2
12:15 54.3 °F 37.1 °F 30.19 in South 3.0 mph 7.0 mph 52 % 0.00 in 596.00 W/m2
12:20 54.4 °F 36.7 °F 30.19 in Calm   5.0 mph 51 % 0.00 in 591.00 W/m2
12:25 54.5 °F 36.8 °F 30.19 in Calm     51 % 0.00 in 591.00 W/m2
12:30 54.7 °F 37.9 °F 30.19 in Calm   1.0 mph 53 % 0.00 in 585.00 W/m2
12:35 54.9 °F 38.1 °F 30.18 in South 2.0 mph 4.0 mph 53 % 0.00 in 578.00 W/m2
12:40 55.0 °F 39.2 °F 30.18 in Calm   4.0 mph 55 % 0.00 in 575.00 W/m2
12:45 55.1 °F 38.8 °F 30.18 in South 1.0 mph 4.0 mph 54 % 0.00 in 571.00 W/m2
12:50 55.3 °F 38.5 °F 30.17 in Calm     53 % 0.00 in 568.00 W/m2
12:55 55.5 °F 39.6 °F 30.17 in SSW 4.0 mph 6.0 mph 55 % 0.00 in 561.00 W/m2
13:00 55.5 °F 40.1 °F 30.17 in Calm     56 % 0.00 in 555.00 W/m2
13:05 55.6 °F 40.2 °F 30.17 in Calm     56 % 0.00 in 548.00 W/m2
13:11 55.6 °F 39.2 °F 30.17 in SW 2.0 mph 2.0 mph 54 % 0.00 in 543.00 W/m2
13:16 55.7 °F 39.3 °F 30.17 in Calm     54 % 0.00 in 536.00 W/m2
13:21 55.7 °F 39.3 °F 30.17 in Calm     54 % 0.00 in 529.00 W/m2
13:31 55.9 °F 41.3 °F 30.17 in Calm     58 % 0.00 in 517.00 W/m2
13:36 55.8 °F 41.3 °F 30.17 in Calm     58 % 0.00 in 504.00 W/m2
13:41 55.8 °F 40.8 °F 30.16 in Calm     57 % 0.00 in 490.00 W/m2
13:46 55.8 °F 40.8 °F 30.16 in Calm     57 % 0.00 in 501.00 W/m2
13:51 55.9 °F 39.5 °F 30.16 in South 2.0 mph 5.0 mph 54 % 0.00 in 494.00 W/m2
13:56 55.9 °F 40.0 °F 30.16 in Calm     55 % 0.00 in 494.00 W/m2
14:01 56.0 °F 40.1 °F 30.16 in Calm     55 % 0.00 in 459.00 W/m2
14:06 56.0 °F 41.0 °F 30.16 in Calm     57 % 0.00 in 432.00 W/m2
14:11 56.0 °F 41.0 °F 30.16 in Calm     57 % 0.00 in 436.00 W/m2
14:16 56.0 °F 40.5 °F 30.16 in SSW 3.0 mph 5.0 mph 56 % 0.00 in 323.00 W/m2
14:21 56.0 °F 40.1 °F 30.17 in Calm   1.0 mph 55 % 0.00 in 378.00 W/m2
14:26 56.0 °F 39.6 °F 30.16 in Calm     54 % 0.00 in 318.00 W/m2
14:31 56.0 °F 41.0 °F 30.16 in Calm     57 % 0.00 in 267.00 W/m2
14:36 56.0 °F 41.5 °F 30.16 in Calm     58 % 0.00 in 334.00 W/m2
14:41 55.9 °F 40.0 °F 30.17 in Calm     55 % 0.00 in 304.00 W/m2
14:46 55.9 °F 40.5 °F 30.16 in Calm     56 % 0.00 in 255.00 W/m2
14:51 55.8 °F 40.4 °F 30.17 in Calm     56 % 0.00 in 246.00 W/m2
14:56 55.7 °F 41.2 °F 30.17 in Calm     58 % 0.00 in 258.00 W/m2
15:01 55.5 °F 40.1 °F 30.17 in Calm     56 % 0.00 in 230.00 W/m2
15:06 55.4 °F 42.2 °F 30.17 in Calm     61 % 0.00 in 186.00 W/m2
15:11 55.3 °F 41.7 °F 30.17 in Calm     60 % 0.00 in 232.00 W/m2
15:16 55.2 °F 41.6 °F 30.17 in Calm     60 % 0.00 in 269.00 W/m2
15:21 55.1 °F 42.3 °F 30.17 in Calm     62 % 0.00 in 176.00 W/m2
15:26 55.0 °F 41.8 °F 30.17 in Calm     61 % 0.00 in 199.00 W/m2
15:31 54.9 °F 41.7 °F 30.17 in Calm     61 % 0.00 in 207.00 W/m2
15:36 54.8 °F 42.0 °F 30.17 in Calm     62 % 0.00 in 232.00 W/m2
15:41 54.7 °F 42.8 °F 30.17 in Calm     64 % 0.00 in 160.00 W/m2
15:46 54.6 °F 42.7 °F 30.16 in Calm     64 % 0.00 in 158.00 W/m2
15:52 54.4 °F 42.5 °F 30.16 in Calm     64 % 0.00 in 195.00 W/m2
15:57 54.3 °F 42.4 °F 30.16 in Calm     64 % 0.00 in 139.00 W/m2
16:02 54.1 °F 43.8 °F 30.15 in Calm     68 % 0.00 in 151.00 W/m2
16:07 54.0 °F 42.9 °F 30.15 in Calm     66 % 0.00 in 125.00 W/m2
16:12 53.9 °F 42.8 °F 30.15 in Calm     66 % 0.00 in 100.00 W/m2
16:17 53.8 °F 42.7 °F 30.15 in Calm   1.0 mph 66 % 0.00 in 97.00 W/m2
16:22 53.7 °F 43.0 °F 30.15 in Calm     67 % 0.00 in 81.00 W/m2
16:27 53.6 °F 43.3 °F 30.15 in Calm     68 % 0.00 in 62.00 W/m2
16:32 53.5 °F 43.6 °F 30.15 in Calm     69 % 0.00 in 44.00 W/m2
16:37 53.3 °F 43.8 °F 30.14 in Calm     70 % 0.00 in 28.00 W/m2
16:42 53.1 °F 44.0 °F 30.14 in Calm     71 % 0.00 in 23.00 W/m2
16:47 52.8 °F 43.7 °F 30.14 in Calm     71 % 0.00 in 16.00 W/m2
16:52 52.6 °F 43.8 °F 30.14 in Calm     72 % 0.00 in 14.00 W/m2
16:57 52.5 °F 43.8 °F 30.14 in Calm     72 % 0.00 in 9.00 W/m2
17:02 52.2 °F 43.5 °F 30.13 in Calm     72 % 0.00 in 0.00 W/m2
17:07 51.6 °F 43.2 °F 30.13 in Calm     73 % 0.00 in 0.00 W/m2
17:12 51.2 °F 42.9 °F 30.13 in Calm     73 % 0.00 in 0.00 W/m2
17:17 50.6 °F 43.3 °F 30.13 in Calm     76 % 0.00 in 0.00 W/m2
17:22 50.1 °F 42.5 °F 30.13 in Calm     75 % 0.00 in 0.00 W/m2
17:27 49.6 °F 42.7 °F 30.13 in Calm     77 % 0.00 in 0.00 W/m2
17:32 49.2 °F 42.0 °F 30.13 in Calm     76 % 0.00 in 0.00 W/m2
17:37 48.8 °F 41.9 °F 30.13 in Calm     77 % 0.00 in 0.00 W/m2
17:42 48.5 °F 42.0 °F 30.14 in Calm     78 % 0.00 in 0.00 W/m2
17:47 48.3 °F 41.8 °F 30.14 in Calm     78 % 0.00 in 0.00 W/m2
17:52 48.0 °F 41.5 °F 30.14 in Calm     78 % 0.00 in 0.00 W/m2
17:57 47.8 °F 41.3 °F 30.14 in Calm     78 % 0.00 in 0.00 W/m2
18:02 47.6 °F 41.4 °F 30.14 in Calm     79 % 0.00 in 0.00 W/m2
18:07 47.4 °F 41.2 °F 30.14 in Calm     79 % 0.00 in 0.00 W/m2
18:12 47.1 °F 40.9 °F 30.14 in Calm     79 % 0.00 in 0.00 W/m2
18:17 46.9 °F 41.1 °F 30.14 in Calm     80 % 0.00 in 0.00 W/m2
18:22 46.7 °F 40.9 °F 30.14 in Calm     80 % 0.00 in 0.00 W/m2
18:27 46.6 °F 40.8 °F 30.14 in Calm     80 % 0.00 in 0.00 W/m2
18:32 46.4 °F 40.6 °F 30.14 in Calm     80 % 0.00 in 0.00 W/m2
18:37 46.3 °F 40.5 °F 30.14 in Calm     80 % 0.00 in 0.00 W/m2
18:42 46.2 °F 40.7 °F 30.14 in Calm     81 % 0.00 in 0.00 W/m2
18:45 46.1 °F 40.6 °F 30.14 in Calm     81 % 0.00 in 0.00 W/m2
18:50 46.0 °F 40.5 °F 30.14 in Calm     81 % 0.00 in 0.00 W/m2
18:55 45.9 °F 40.4 °F 30.14 in Calm     81 % 0.00 in 0.00 W/m2
19:00 45.9 °F 40.7 °F 30.14 in Calm     82 % 0.00 in 0.00 W/m2
19:05 45.8 °F 40.6 °F 30.14 in Calm     82 % 0.00 in 0.00 W/m2
19:10 45.9 °F 41.0 °F 30.14 in Calm     83 % 0.00 in 0.00 W/m2
19:15 45.9 °F 41.0 °F 30.14 in Calm     83 % 0.00 in 0.00 W/m2
19:20 45.8 °F 40.6 °F 30.14 in Calm     82 % 0.00 in 0.00 W/m2
19:23 45.8 °F 40.6 °F 30.14 in Calm     82 % 0.00 in 0.00 W/m2
19:25 45.9 °F 40.7 °F 30.14 in ESE 2.0 mph 6.0 mph 82 % 0.00 in 0.00 W/m2
19:30 45.8 °F 40.9 °F 30.14 in ESE 1.0 mph 6.0 mph 83 % 0.00 in 0.00 W/m2
19:35 45.8 °F 40.9 °F 30.14 in ESE 1.0 mph 6.0 mph 83 % 0.00 in 0.00 W/m2
19:40 45.8 °F 40.9 °F 30.14 in Calm   6.0 mph 83 % 0.00 in 0.00 W/m2
19:45 45.8 °F 40.9 °F 30.14 in Calm   6.0 mph 83 % 0.00 in 0.00 W/m2
19:50 45.8 °F 40.9 °F 30.13 in Calm   7.0 mph 83 % 0.00 in 0.00 W/m2
19:55 45.8 °F 40.9 °F 30.14 in ESE 5.0 mph 7.0 mph 83 % 0.00 in 0.00 W/m2
20:00 45.8 °F 40.9 °F 30.14 in Calm   9.0 mph 83 % 0.00 in 0.00 W/m2
20:05 45.8 °F 40.9 °F 30.14 in ESE 6.0 mph 8.0 mph 83 % 0.00 in 0.00 W/m2
20:10 45.9 °F 41.0 °F 30.14 in East 2.0 mph 11.0 mph 83 % 0.00 in 0.00 W/m2
20:15 45.9 °F 40.7 °F 30.14 in Calm   9.0 mph 82 % 0.00 in 0.00 W/m2
20:20 45.8 °F 40.6 °F 30.14 in ESE 11.0 mph 11.0 mph 82 % 0.00 in 0.00 W/m2
20:25 45.8 °F 40.6 °F 30.14 in Calm   11.0 mph 82 % 0.00 in 0.00 W/m2
20:30 45.8 °F 40.6 °F 30.14 in East 1.0 mph 9.0 mph 82 % 0.00 in 0.00 W/m2
20:40 45.7 °F 40.5 °F 30.14 in East 4.0 mph 8.0 mph 82 % 0.00 in 0.00 W/m2
20:45 45.6 °F 40.1 °F 30.14 in ESE 5.0 mph 5.0 mph 81 % 0.00 in 0.00 W/m2
20:50 45.6 °F 40.1 °F 30.14 in ESE 2.0 mph 8.0 mph 81 % 0.00 in 0.00 W/m2
20:55 45.6 °F 40.1 °F 30.15 in ESE 8.0 mph 8.0 mph 81 % 0.00 in 0.00 W/m2
21:00 45.5 °F 40.0 °F 30.14 in East 5.0 mph 13.0 mph 81 % 0.00 in 0.00 W/m2
21:05 45.4 °F 39.6 °F 30.15 in ESE 12.0 mph 15.0 mph 80 % 0.00 in 0.00 W/m2
21:10 45.3 °F 39.5 °F 30.14 in ESE 7.0 mph 7.0 mph 80 % 0.00 in 0.00 W/m2
21:15 45.2 °F 39.4 °F 30.14 in East 1.0 mph 14.0 mph 80 % 0.00 in 0.00 W/m2
21:20 45.2 °F 39.1 °F 30.15 in ESE 4.0 mph 14.0 mph 79 % 0.00 in 0.00 W/m2
21:25 45.2 °F 39.1 °F 30.15 in ESE 5.0 mph 12.0 mph 79 % 0.00 in 0.00 W/m2
21:30 45.1 °F 39.0 °F 30.15 in ESE 5.0 mph 13.0 mph 79 % 0.00 in 0.00 W/m2
21:35 45.2 °F 38.8 °F 30.15 in ESE 8.0 mph 14.0 mph 78 % 0.00 in 0.00 W/m2
21:40 45.2 °F 38.8 °F 30.15 in ESE 7.0 mph 18.0 mph 78 % 0.00 in 0.00 W/m2
21:45 45.2 °F 38.8 °F 30.15 in ESE 5.0 mph 9.0 mph 78 % 0.00 in 0.00 W/m2
21:50 45.1 °F 38.3 °F 30.15 in ESE 6.0 mph 15.0 mph 77 % 0.00 in 0.00 W/m2
21:55 45.2 °F 38.4 °F 30.15 in East 9.0 mph 14.0 mph 77 % 0.00 in 0.00 W/m2
22:00 45.2 °F 38.4 °F 30.15 in ESE 8.0 mph 11.0 mph 77 % 0.00 in 0.00 W/m2
22:05 45.2 °F 38.1 °F 30.15 in ESE 12.0 mph 12.0 mph 76 % 0.00 in 0.00 W/m2
22:10 45.1 °F 37.3 °F 30.15 in ESE 4.0 mph 14.0 mph 74 % 0.00 in 0.00 W/m2
22:15 45.1 °F 37.3 °F 30.15 in East 11.0 mph 13.0 mph 74 % 0.00 in 0.00 W/m2
22:20 45.1 °F 37.7 °F 30.15 in ESE 1.0 mph 11.0 mph 75 % 0.00 in 0.00 W/m2
22:25 45.1 °F 37.7 °F 30.15 in ESE 6.0 mph 12.0 mph 75 % 0.00 in 0.00 W/m2
22:30 45.0 °F 37.2 °F 30.15 in Calm   15.0 mph 74 % 0.00 in 0.00 W/m2
22:35 44.9 °F 37.1 °F 30.15 in Calm   13.0 mph 74 % 0.00 in 0.00 W/m2
22:40 44.9 °F 37.1 °F 30.15 in Calm     74 % 0.00 in 0.00 W/m2
22:45 44.9 °F 36.8 °F 30.14 in Calm   12.0 mph 73 % 0.00 in 0.00 W/m2
22:50 44.8 °F 36.7 °F 30.14 in ESE 4.0 mph 13.0 mph 73 % 0.00 in 0.00 W/m2
22:55 44.7 °F 36.6 °F 30.15 in Calm     73 % 0.00 in 0.00 W/m2
23:00 44.7 °F 36.6 °F 30.15 in Calm     73 % 0.00 in 0.00 W/m2
23:05 44.7 °F 36.2 °F 30.15 in Calm   7.0 mph 72 % 0.00 in 0.00 W/m2
23:10 44.6 °F 36.2 °F 30.15 in Calm   11.0 mph 72 % 0.00 in 0.00 W/m2
23:15 44.6 °F 36.5 °F 30.15 in East 5.0 mph 11.0 mph 73 % 0.00 in 0.00 W/m2
23:20 44.6 °F 36.2 °F 30.15 in Calm   8.0 mph 72 % 0.00 in 0.00 W/m2
23:25 44.5 °F 35.7 °F 30.15 in ESE 2.0 mph 9.0 mph 71 % 0.00 in 0.00 W/m2
23:30 44.5 °F 36.0 °F 30.15 in ESE 1.0 mph 1.0 mph 72 % 0.00 in 0.00 W/m2
23:35 44.4 °F 36.0 °F 30.15 in Calm   12.0 mph 72 % 0.00 in 0.00 W/m2
23:40 44.3 °F 35.9 °F 30.15 in ESE 4.0 mph 11.0 mph 72 % 0.00 in 0.00 W/m2
23:45 44.2 °F 35.4 °F 30.15 in Calm   9.0 mph 71 % 0.00 in 0.00 W/m2
23:50 44.2 °F 35.8 °F 30.15 in Calm     72 % 0.00 in 0.00 W/m2
23:55 44.1 °F 35.3 °F 30.15 in Calm   14.0 mph 71 % 0.00 in 0.00 W/m2
Juneau County Weather
Compliments of Weather Underground - 4.5 mb
 WU-history PHP script courtesy of   Juneau County Weather.
powered by Cumulus v1.9.3 (1059)
Ambient Weather VWS v14.00
Top Contact Website Map Copyright © 2007 - 2018 Foresthillweather.com Never base important decisions on this or any weather information obtained from the Internet